Tracking 29892 objects as of 21-Nov-2024
HD Live streaming from Space Station
objects crossing your sky now

STARLINK-5353

Track STARLINK-5353 now!
10-day predictions
STARLINK-5353 is classified as:


NORAD ID: 57370
Int'l Code: 2023-099AU
Perigee: 565.5 km
Apogee: 567.0 km
Inclination: 43.0 °
Period: 95.8 minutes
Semi major axis: 6937 km
RCS: Unknown
Launch date: July 16, 2023
Source: United States (US)
Launch site: AIR FORCE EASTERN TEST RANGE (AFETR)
Your satellite tracking list
Your tracking list is empty




NASA's NSSDC Master Catalog

Two Line Element Set (TLE):
1 57370U 23099AU  24325.33683417  .00000392  00000-0  44090-4 0  9991
2 57370  43.0034 293.2652 0001080 259.4306 100.6414 15.02537250 74912
Source of the keplerian elements: AFSPC